Location: Miami, Florida
(25.6830°N, 80.1700°W)
Time: 06:25:25
(UTC-04:00)

Tiangong 2 - Pass Details

Date: 17 November 2017
Orbit: 386 x 391 km, 42.8° (Epoch: 18 November)

Event Time Altitude Azimuth Distance (km) Brightness Sun altitude
Rises 19:16:56 0° 285° (WNW) 2,266 6.1 -10.6°
Reaches altitude 10° 19:19:43 10° 258° (WSW) 1,407 5.5 -11.2°
Maximum altitude 19:21:27 14° 225° (SW) 1,196 4.5 -11.6°
Drops below altitude 10° 19:23:11 10° 191° (S) 1,402 4.3 -12.0°
Sets 19:25:58 0° 164° (SSE) 2,251 5.0 -12.6°
